#timestamp,LO_Frequency,Hit,StdDev 
1587070815.8,286046998.3,N
1587070835.6,286047000.2,N
1587070855.5,286046999.1,N
1587070875.3,286046997.1,N
1587070895.2,286046999.1,N
1587070915.9,286047000.2,N
1587070935.7,286047000.8,N
1587070955.6,286046999.1,N
1587070975.4,286046998.3,N
1587070995.2,286046998.5,N
1587071015.1,286047000.2,N
1587071016.0,286047000.2,N
1587071035.8,286047004.3,N
1587071055.7,286047003.7,N
1587071075.5,286047000.1,N
1587071095.3,286046999.4,N
1587071115.2,286046998.8,N
1587071135.0,286046998.4,N
1587071135.9,286046998.4,N
1587071155.8,286047000.7,N
1587071175.6,286046998.2,N
1587071195.4,286046996.6,N
1587071215.3,286046996.6,N
1587071235.1,286046998.5,N
1587071255.9,286047000.8,N
1587071275.7,286047000.9,N
1587071295.5,286046998.5,N
1587071315.4,286046998.6,N
1587071335.2,286046998.1,N
1587071355.1,286046998.6,N
1587071356.0,286046998.6,N
1587071375.8,286047000.5,N
1587071395.6,286047001.0,N
1587071415.5,286046996.5,N
1587071435.3,286046999.5,N
1587071455.1,286046998.1,N
1587071475.9,286046998.2,N
1587071495.7,286046999.9,N
1587071515.6,286047002.5,N
1587071535.4,286046999.4,N
1587071555.2,286046998.7,N
1587071575.1,286046996.6,N
1587071576.0,286046996.6,N
1587071595.8,286046997.4,N
1587071615.7,286046997.7,N
1587071635.5,286046998.8,N
1587071655.3,286046998.7,N
1587071675.2,286047000.7,N
1587071695.0,286047000.0,N
1587071695.9,286047000.0,N
1587071715.7,286047000.3,N
1587071735.6,286047002.2,N
1587071755.4,286047001.4,N
1587071775.3,286047000.0,N
1587071795.1,286047002.2,N
1587071796.0,286047002.2,N
1587071815.8,286047000.6,N
1587071835.7,286047001.4,N
1587071855.5,286046998.9,N
1587071875.4,286047002.4,N
1587071895.2,286047001.8,N
1587071915.0,286047004.3,N
1587071915.9,286047004.3,N
1587071935.8,286047001.4,N
1587071955.6,286047003.2,N
1587071975.5,286047001.5,N
1587071995.3,286047000.2,N
1587072015.1,286047003.9,N
1587072035.9,286047004.2,N
1587072055.7,286047004.2,N
1587072075.5,286047001.5,N
1587072095.4,286047001.7,N
1587072115.2,286047004.1,N
1587072135.1,286047001.0,N
1587072136.0,286047001.0,N
1587072155.8,286047002.7,N
1587072175.6,286047001.6,N
1587072195.5,286046999.7,N
1587072215.3,286047000.5,N
1587072235.2,286047000.6,N
1587072255.9,286046997.0,N
1587072275.7,286046997.8,N
1587072295.6,286046999.5,N
1587072315.4,286046998.5,N
1587072335.2,286046998.9,N
1587072355.1,286046998.2,N
1587072356.0,286046998.2,N
1587072375.8,286046998.4,N
1587072395.7,286047001.2,N
1587072415.5,286046999.2,N
1587072435.3,286046999.2,N
1587072455.2,286046997.8,N
1587072475.0,286046997.8,N
1587072475.9,286046997.8,N
1587072495.8,286046998.0,N
1587072515.6,286046996.3,N
1587072535.4,286046995.1,N
1587072555.3,286046995.3,N
1587072575.1,286046995.0,N
1587072595.9,286046993.3,N
1587072615.7,286046993.4,N
1587072635.5,286046994.1,N
1587072655.4,286046994.1,N
1587072675.2,286046994.5,N
1587072695.0,286046993.9,N
1587072695.9,286046993.9,N
1587072715.8,286046994.4,N
1587072735.6,286046994.3,N
1587072755.5,286046994.0,N
1587072775.3,286046994.2,N
1587072795.1,286046992.1,Y
1587072815.9,286046995.6,P
1587072835.7,286046996.2,P
1587072855.6,286046993.5,P
1587072875.4,286046994.0,Y
1587072895.2,286047000.6,P
1587072915.1,286047001.0,N
1587072916.0,286047001.0,N
1587072935.8,286046999.7,N
1587072955.7,286047002.1,N
1587072975.5,286047002.7,N
1587072995.3,286046998.6,N
1587073015.2,286046999.6,N
1587073035.0,286046998.6,N
1587073035.9,286046998.6,N
1587073055.8,286046999.4,N
1587073075.6,286046997.0,N
1587073095.4,286046999.1,N
1587073115.3,286046998.4,N
1587073135.1,286046996.9,N
1587073155.9,286046997.1,N
1587073175.7,286046997.7,N
1587073195.5,286046995.1,N
1587073215.4,286046995.4,N
1587073235.2,286046995.4,N
1587073255.1,286046995.9,N
1587073256.0,286046995.9,N
1587073275.8,286046996.2,N
1587073295.6,286046995.1,N
1587073315.5,286046995.0,N
1587073335.3,286046997.1,N
1587073355.2,286046999.6,N
1587073375.9,286046995.0,N
1587073395.7,286046997.4,N
1587073415.6,286046997.6,N
1587073435.4,286046995.4,N
1587073455.3,286046993.4,Y
1587073475.1,286046997.2,P
1587073495.8,286046999.0,P
1587073515.7,286046998.8,N
1587073535.5,286046998.7,N
1587073555.4,286046999.4,N
1587073575.2,286046998.1,N
1587073595.0,286046998.6,N
1587073595.9,286046998.6,N
1587073615.8,286046999.7,N
1587073635.6,286047001.2,N
1587073655.4,286047000.9,N
1587073675.3,286047000.1,N
1587073695.1,286047000.5,N
1587073715.9,286047002.6,N
1587073735.7,286047001.3,N
1587073755.5,286047002.0,N
1587073775.4,286047002.4,N
1587073795.2,286047002.1,N
1587073815.1,286047001.7,N
1587073816.0,286047001.7,N
1587073835.8,286047002.2,N
1587073855.6,286047004.4,N
1587073875.5,286047000.5,N
1587073895.3,286047003.8,N
1587073915.1,286047006.0,Y
1587073935.9,286047003.5,P
1587073955.7,286047003.3,N
1587073975.6,286047002.0,N
1587073995.4,286047001.8,N
1587074015.2,286047004.2,Y
1587074035.1,286047002.7,P
1587074036.0,286047002.7,P
1587074055.8,286047001.0,P
1587074075.7,286047000.2,N
1587074095.5,286046999.9,N
1587074115.3,286047000.6,N
1587074135.2,286047001.1,N
1587074155.0,286046999.4,N
1587074155.9,286046999.4,N
1587074175.7,286047000.8,N
1587074195.6,286047001.0,N
1587074215.4,286046998.4,N
1587074235.3,286046998.3,N
1587074255.1,286047001.2,N
1587074256.0,286047001.2,N
1587074275.8,286047002.7,N
1587074295.7,286047002.3,N
1587074315.5,286047001.1,N
1587074335.4,286047002.5,N
1587074355.2,286047000.1,N
1587074375.0,286047003.4,N
1587074375.9,286047003.4,N
1587074395.8,286047005.7,Y
